[[{"header":{"parameterUnit":"m.s-1","parameterCategory":1,"la1":30.2991,"la2":30.254,"lo1":-89.0895,"lo2":-89.0444,"dy":0.0017,"dx":0.0017,"nx":28,"ny":28,"refTime":"2023-03-18T21:00:00:Z","depth":0,"parameterNumber":2,"parameterNumberName":"U-component_of_WINDS"},"data":[0,0,0,0,0,0,0,0,0,0,0,0,0,0,0,0,0,0,0,0,0,0,0,0,0,0,0,0,0,0,0,0,0,0,0,0,0,0,0,0,0,0,0,0,0,0,0,0,0,0,0,0,0,0,0,0,0,0,0.382,0.382,0,0.3786,0.3785,0.3785,0.3812,0.3814,0.3815,0.3816,0.3776,0.3774,0.3772,0,0,0,0,0,0,0,0,0,0,0,0,0,0.3908,0.3906,0.382,0.382,0.3819,0.3786,0.3785,0.3785,0.3812,0.3814,0.3815,0.3816,0.3777,0.3774,0.3772,0,0,0,0,0,0,0,0,0,0,0,0,0,0.3871,0.3906,0.382,0.3829,0.383,0.3786,0.3785,0.3784,0.3812,0.3814,0.3815,0.3817,0.3778,0.3775,0.3772,0.3716,0,0,0.3762,0.376,0,0,0,0,0,0,0,0,0.3873,0.3868,0.3828,0.3829,0.3829,0.3805,0.3802,0.3761,0.3811,0.3818,0.3816,0.3818,0.3784,0.3781,0.377,0.3714,0.3712,0.3761,0.3759,0.3758,0.3757,0,0,0,0,0,0,0,0.3876,0.387,0.3806,0.3828,0.3828,0.3834,0.3831,0.3794,0.3792,0.3818,0.382,0.3816,0.3785,0.3773,0.3769,0.3712,0.3761,0.3759,0.3757,0.3755,0.3609,0.3607,0,0,0,0,0,0,0.3878,0.3872,0.3808,0.3805,0.3856,0.3831,0.3827,0.3811,0.3792,0.3791,0.3814,0.3817,0.3778,0.3773,0.3768,0.3701,0.3758,0.3755,0.3753,0.361,0.3608,0.3606,0,0,0,0,0,0,0.388,0.3872,0.3809,0.3839,0.3832,0.3828,0.3809,0.3809,0.3798,0.3789,0.3789,0.3803,0.3779,0.3773,0.3729,0.37,0.3753,0.3751,0.3613,0.361,0.3607,0.3568,0,0,0,0,0,0,0.3882,0.3872,0.3852,0.3838,0.383,0.3771,0.3807,0.3807,0.3793,0.3796,0.3779,0.3777,0.378,0.3734,0.3726,0.3697,0.3748,0.3615,0.3611,0.3608,0.3571,0.3564,0.3557,0,0,0,0,0,0.3885,0.3841,0.385,0.3842,0.3804,0.3769,0.3764,0.3769,0.379,0.3769,0.3764,0.3778,0.3705,0.3729,0.372,0.369,0.3617,0.3613,0.3608,0.3575,0.3565,0.3557,0,0,0,0,0,0,0.3849,0.3839,0.385,0.38,0.3786,0.3774,0.3747,0.3759,0.3737,0.3741,0.3747,0.3743,0.3697,0.369,0.3716,0.3635,0.3664,0.3658,0.3642,0.3633,0.3626,0.3628,0.3745,0,0,0,0,0,0.3836,0.381,0.3802,0.3759,0.3751,0.3751,0.3736,0.3741,0.3726,0.3719,0.3711,0.3694,0.3668,0.365,0.3625,0.3571,0.3568,0.3546,0.3539,0.3533,0.3527,0.3498,0.3488,0.3592,0.3592,0.3592,0,0,0.3807,0.3798,0.3781,0.3752,0.3741,0.3713,0.3745,0.3714,0.3693,0.3714,0.3672,0.3666,0.3648,0.3599,0.3577,0.3591,0.3498,0.3528,0.3523,0.352,0.3492,0.3483,0.3474,0.3589,0.3589,0.359,0,0,0.374,0.3732,0.3695,0.3684,0.3668,0.3668,0.366,0.3647,0.3644,0.3603,0.3618,0.3593,0.3548,0.3534,0.3522,0.3452,0.3464,0.3444,0.3406,0.3377,0.3369,0.3362,0.3336,0.3327,0.3438,0.3438,0.3438,0,0.3706,0.3665,0.3674,0.3642,0.3628,0.3649,0.3611,0.36,0.3576,0.3566,0.3583,0.3527,0.3516,0.3464,0.3448,0.3437,0.3426,0.3445,0.337,0.3363,0.3356,0.3332,0.3322,0.3436,0.3436,0.3436,0.3436,0,0.3624,0.3595,0.3567,0.3546,0.3529,0.3494,0.3497,0.3479,0.3487,0.3485,0.3443,0.3432,0.3405,0.3394,0.34,0.3343,0.3352,0.3369,0.3398,0.3344,0.3321,0.3312,0.3432,0.3433,0.3434,0.3434,0,0,0.3531,0.3516,0.3506,0.3496,0.3481,0.3459,0.3426,0.3401,0.3385,0.3369,0.334,0.3302,0.3319,0.3304,0.331,0.3285,0.323,0.3305,0.3305,0.3291,0.3166,0.3152,0.3141,0.3239,0.3237,0.3236,0.3167,0,0.3463,0.3405,0.3413,0.3357,0.3331,0.3351,0.3322,0.3309,0.3307,0.3284,0.3281,0.3254,0.3278,0.327,0.3246,0.3242,0.3205,0.3247,0.3211,0.321,0.3213,0.3129,0.3114,0.305,0.3158,0.3157,0.3156,0,0.3375,0.3357,0.3299,0.3289,0.3278,0.3252,0.3231,0.3209,0.3195,0.3195,0.318,0.319,0.3156,0.3187,0.314,0.3169,0.3155,0.3151,0.3148,0.3144,0.3178,0.3121,0.3029,0.3019,0.3142,0.3143,0.3144,0,0.3312,0.3273,0.3234,0.3225,0.3213,0.3194,0.3188,0.3176,0.3161,0.3142,0.3133,0.311,0.3097,0.3079,0.3082,0.3105,0.3034,0.3066,0.3032,0.3032,0.3014,0.3015,0.2918,0.3008,0.3008,0.3008,0.3009,0,0.3234,0.3197,0.3205,0.3181,0.3141,0.315,0.311,0.3106,0.3096,0.307,0.3087,0.3062,0.3069,0.3045,0.3048,0.3008,0.3002,0.3001,0.3002,0.2998,0.2998,0.2988,0.2992,0.3006,0.3006,0.3007,0.3007,0,0.3156,0.316,0.3118,0.3111,0.3108,0.3078,0.3072,0.3048,0.3049,0.3017,0.3009,0.3009,0.2982,0.2985,0.2953,0.2955,0.2906,0.2912,0.291,0.2911,0.2878,0.288,0.2769,0.2755,0.2855,0.2854,0.2853,0,0.3105,0.3078,0.3068,0.3053,0.3046,0.3021,0.3006,0.3015,0.2999,0.2983,0.2961,0.2936,0.2916,0.2871,0.2867,0.2844,0.2849,0.2812,0.2846,0.2844,0.2848,0.2849,0.2846,0.2805,0.2804,0.2803,0.2802,0,0.3014,0.3018,0.2997,0.2977,0.296,0.2944,0.293,0.2916,0.2924,0.2905,0.2878,0.2863,0.2832,0.2806,0.2785,0.2777,0.279,0.2792,0.2783,0.2778,0.2778,0.2777,0.2891,0.2794,0.2795,0.2795,0.2796,0.2796,0.2947,0.2924,0.2914,0.289,0.2881,0.2868,0.2846,0.2844,0.2822,0.2799,0.2806,0.2775,0.2763,0.2735,0.2726,0.2702,0.2715,0.2702,0.2698,0.2695,0.269,0.2783,0.2698,0.2698,0.2698,0.2699,0.2699,0,0.2856,0.2852,0.283,0.281,0.2792,0.2808,0.2794,0.2777,0.275,0.2738,0.2719,0.2688,0.2664,0.2659,0.2636,0.2617,0.2623,0.2611,0.2611,0.261,0.268,0.269,0.2607,0.2607,0.2607,0.2607,0.2607,0.2607,0.2807,0.2769,0.2771,0.2729,0.2724,0.2695,0.2685,0.2673,0.2664,0.2629,0.261,0.2608,0.2599,0.2576,0.2554,0.2553,0.2543,0.2529,0.253,0.2595,0.2605,0.2613,0.2622,0.2527,0.2527,0.2461,0.2461,0.246]},{"header":{"parameterUnit":"m.s-1","parameterCategory":1,"la1":30.2991,"la2":30.254,"lo1":-89.0895,"lo2":-89.0444,"dy":0.0017,"dx":0.0017,"nx":28,"ny":28,"refTime":"2023-03-18T21:00:00:Z","depth":0,"parameterNumber":3,"parameterNumberName":"V-component_of_WINDS"},"data":[0,0,0,0,0,0,0,0,0,0,0,0,0,0,0,0,0,0,0,0,0,0,0,0,0,0,0,0,0,0,0,0,0,0,0,0,0,0,0,0,0,0,0,0,0,0,0,0,0,0,0,0,0,0,0,0,0,0,-7.2607,-7.2608,0,-7.2725,-7.2727,-7.2728,-7.2615,-7.2611,-7.2606,-7.2602,-7.2717,-7.2725,-7.2732,0,0,0,0,0,0,0,0,0,0,0,0,0,-7.2276,-7.2283,-7.2607,-7.2608,-7.261,-7.2725,-7.2727,-7.2728,-7.2616,-7.2611,-7.2605,-7.26,-7.2715,-7.2724,-7.2732,0,0,0,0,0,0,0,0,0,0,0,0,0,-7.241,-7.2285,-7.2606,-7.2568,-7.2565,-7.2725,-7.2727,-7.2729,-7.2617,-7.261,-7.2604,-7.2597,-7.2712,-7.2723,-7.2734,-7.2935,0,0,-7.2767,-7.2771,0,0,0,0,0,0,0,0,-7.2402,-7.2422,-7.2572,-7.2571,-7.2568,-7.2649,-7.2652,-7.2798,-7.2619,-7.2597,-7.2602,-7.2594,-7.27,-7.2711,-7.2748,-7.2941,-7.2945,-7.2768,-7.2774,-7.2779,-7.2782,0,0,0,0,0,0,0,-7.2393,-7.2416,-7.2653,-7.2574,-7.2572,-7.2542,-7.2554,-7.2679,-7.2685,-7.2599,-7.2591,-7.2607,-7.2697,-7.2738,-7.275,-7.2947,-7.2767,-7.2777,-7.2784,-7.2788,-7.3308,-7.3315,0,0,0,0,0,0,-7.2389,-7.2409,-7.265,-7.2657,-7.2467,-7.2554,-7.2566,-7.263,-7.2683,-7.2685,-7.2612,-7.2601,-7.2722,-7.2737,-7.2753,-7.2991,-7.2779,-7.2789,-7.2795,-7.3301,-7.331,-7.3318,0,0,0,0,0,0,-7.2382,-7.2412,-7.2645,-7.2531,-7.2558,-7.2566,-7.2638,-7.2636,-7.2676,-7.2693,-7.2693,-7.2653,-7.2718,-7.2738,-7.2891,-7.2994,-7.2794,-7.2804,-7.3292,-7.3304,-7.3314,-7.347,0,0,0,0,0,0,-7.2373,-7.241,-7.2488,-7.2534,-7.2565,-7.2783,-7.2645,-7.2643,-7.2696,-7.2682,-7.2732,-7.2733,-7.2714,-7.2875,-7.2901,-7.3005,-7.2812,-7.3283,-7.3297,-7.331,-7.3456,-7.3485,-7.351,0,0,0,0,0,-7.2362,-7.2527,-7.2493,-7.2523,-7.2664,-7.2789,-7.2807,-7.2783,-7.2705,-7.2782,-7.2793,-7.2732,-7.2979,-7.2892,-7.292,-7.3029,-7.3276,-7.3293,-7.3309,-7.3443,-7.3479,-7.3509,0,0,0,0,0,0,-7.2492,-7.2532,-7.2495,-7.268,-7.2732,-7.277,-7.2867,-7.2822,-7.2896,-7.288,-7.2845,-7.2857,-7.3018,-7.3039,-7.2941,-7.3225,-7.3114,-7.3137,-7.3206,-7.3241,-7.3267,-7.3258,-7.2821,0,0,0,0,0,-7.2542,-7.2643,-7.2672,-7.2832,-7.286,-7.286,-7.2913,-7.2891,-7.2942,-7.2963,-7.2985,-7.3036,-7.3124,-7.3184,-7.3266,-7.3458,-7.3466,-7.3546,-7.3574,-7.3596,-7.3616,-7.3716,-7.3752,-7.3372,-7.3371,-7.3371,0,0,-7.2647,-7.2681,-7.2747,-7.2859,-7.2897,-7.2999,-7.2879,-7.2993,-7.3068,-7.298,-7.3125,-7.3143,-7.3197,-7.337,-7.3447,-7.3392,-7.3723,-7.3617,-7.3634,-7.3642,-7.3737,-7.3773,-7.3805,-7.3383,-7.3381,-7.3379,0,0,-7.289,-7.2927,-7.3064,-7.3104,-7.3163,-7.3162,-7.3195,-7.3239,-7.3248,-7.3394,-7.333,-7.3417,-7.3571,-7.3612,-7.3653,-7.391,-7.3855,-7.3938,-7.4079,-7.4178,-7.4208,-7.4234,-7.4324,-7.4357,-7.3958,-7.3958,-7.3958,0,-7.3012,-7.3166,-7.3139,-7.3258,-7.3308,-7.3235,-7.3372,-7.3411,-7.3494,-7.3529,-7.3466,-7.3657,-7.3689,-7.3869,-7.3932,-7.3968,-7.4002,-7.3932,-7.4206,-7.4232,-7.4256,-7.4342,-7.4376,-7.3968,-7.3966,-7.3965,-7.3965,0,-7.3312,-7.342,-7.3523,-7.3606,-7.3667,-7.3795,-7.3785,-7.385,-7.3822,-7.3826,-7.3974,-7.4009,-7.4097,-7.4138,-7.4111,-7.4314,-7.4277,-7.4212,-7.4099,-7.4303,-7.4382,-7.4415,-7.3981,-7.3978,-7.3975,-7.3973,0,0,-7.364,-7.3707,-7.3745,-7.3781,-7.384,-7.3922,-7.4044,-7.4132,-7.4187,-7.4246,-7.4347,-7.4478,-7.4417,-7.4463,-7.444,-7.4527,-7.4726,-7.4449,-7.445,-7.4498,-7.4949,-7.4998,-7.5036,-7.469,-7.4696,-7.4701,-7.4944,0,-7.3884,-7.4099,-7.4078,-7.4282,-7.4379,-7.4311,-7.4417,-7.4463,-7.447,-7.4552,-7.4558,-7.4652,-7.4565,-7.4592,-7.4675,-7.4684,-7.4816,-7.4666,-7.4781,-7.4785,-7.4769,-7.5078,-7.513,-7.5358,-7.4975,-7.498,-7.4984,0,-7.4197,-7.4269,-7.4483,-7.4526,-7.4566,-7.4662,-7.474,-7.482,-7.487,-7.4868,-7.492,-7.4881,-7.5002,-7.4888,-7.5051,-7.495,-7.4995,-7.5007,-7.5015,-7.5024,-7.4896,-7.5094,-7.543,-7.5464,-7.5033,-7.5029,-7.5026,0,-7.4414,-7.4563,-7.471,-7.4743,-7.4797,-7.4866,-7.4892,-7.4935,-7.4989,-7.5055,-7.5089,-7.5169,-7.5212,-7.5273,-7.5256,-7.5175,-7.5423,-7.5308,-7.5423,-7.5424,-7.5478,-7.5474,-7.5825,-7.551,-7.5509,-7.5508,-7.5508,0,-7.4687,-7.482,-7.4808,-7.4898,-7.5044,-7.5017,-7.5162,-7.5178,-7.5217,-7.5307,-7.5252,-7.5337,-7.531,-7.5393,-7.538,-7.5516,-7.5536,-7.5537,-7.5531,-7.5541,-7.5541,-7.557,-7.5553,-7.5517,-7.5515,-7.5514,-7.5512,0,-7.4953,-7.4951,-7.5106,-7.5145,-7.5157,-7.5263,-7.5295,-7.5378,-7.538,-7.5495,-7.552,-7.5523,-7.5618,-7.5607,-7.5712,-7.5703,-7.5872,-7.5849,-7.5856,-7.585,-7.5966,-7.5955,-7.6346,-7.6394,-7.6049,-7.6052,-7.6055,0,-7.5128,-7.5229,-7.5279,-7.5336,-7.5367,-7.546,-7.5514,-7.5491,-7.5549,-7.5613,-7.5688,-7.5779,-7.5849,-7.6004,-7.6013,-7.6093,-7.607,-7.6201,-7.6081,-7.6088,-7.607,-7.6064,-7.6073,-7.6225,-7.6229,-7.6232,-7.6235,0,-7.5437,-7.5431,-7.5512,-7.5594,-7.5661,-7.5723,-7.5779,-7.5829,-7.581,-7.5878,-7.5975,-7.6031,-7.6139,-7.6228,-7.6303,-7.6326,-7.6277,-7.6272,-7.6303,-7.6313,-7.6313,-7.6313,-7.5919,-7.6263,-7.626,-7.6258,-7.6257,-7.6256,-7.5662,-7.5748,-7.5796,-7.5888,-7.5928,-7.5982,-7.6062,-7.6075,-7.6156,-7.6243,-7.6224,-7.6333,-7.6378,-7.6474,-7.6505,-7.6588,-7.654,-7.6585,-7.6596,-7.6607,-7.662,-7.6301,-7.6602,-7.6601,-7.66,-7.6599,-7.6599,0,-7.5967,-7.5995,-7.608,-7.6161,-7.6233,-7.6183,-7.6242,-7.6304,-7.6402,-7.6449,-7.652,-7.6631,-7.6717,-7.6733,-7.6815,-7.6878,-7.6857,-7.69,-7.6894,-7.69,-7.6659,-7.6624,-7.6915,-7.6915,-7.6915,-7.6915,-7.6915,-7.6915,-7.6134,-7.6277,-7.6275,-7.6436,-7.6461,-7.6569,-7.6607,-7.6655,-7.6693,-7.6819,-7.6891,-7.6902,-7.6936,-7.7019,-7.7095,-7.7097,-7.7129,-7.718,-7.7174,-7.6948,-7.6917,-7.6887,-7.6853,-7.7188,-7.7188,-7.7407,-7.7409,-7.7411]}]]